LNAFA ENSB-ENSB

Flight info

Callsign LNAFA
Flight time 0h 4m
Altitude
Route
Aircraft AEST

Departure

Time 2026-05-07 21:04
Airport Svalbard Airport, Longyear (ENSB)

Arrival

Time 2026-05-07 21:08
Airport Svalbard Airport, Longyear (ENSB)
Time Latitude Longitude Altitude Speed Heading
2026-05-07 20:57 78.24542 15.50321 90 ft 0 kts 182°
2026-05-07 21:00 78.24536 15.50301 90 ft 2 kts 245°
2026-05-07 21:00 78.24537 15.50242 92 ft 2 kts 283°
2026-05-07 21:01 78.24546 15.50026 90 ft 9 kts 259°
2026-05-07 21:01 78.24528 15.49922 92 ft 0 kts 199°
2026-05-07 21:03 78.24524 15.49915 92 ft 0 kts 198°
2026-05-07 21:03 78.24454 15.49756 89 ft 18 kts 239°
2026-05-07 21:03 78.24515 15.48307 93 ft 84 kts 285°
2026-05-07 21:04 78.24719 15.44903 242 ft 114 kts 288°
2026-05-07 21:04 78.25021 15.41107 751 ft 123 kts 294°
2026-05-07 21:04 78.25566 15.37583 1143 ft 136 kts 328°
2026-05-07 21:04 78.26456 15.36420 1565 ft 141 kts 349°
2026-05-07 21:05 78.27190 15.33482 1488 ft 140 kts 288°
2026-05-07 21:05 78.27009 15.29047 1404 ft 135 kts 227°
2026-05-07 21:05 78.26217 15.28268 1001 ft 125 kts 149°
2026-05-07 21:05 78.25635 15.31221 754 ft 120 kts 123°
2026-05-07 21:06 78.25284 15.34768 478 ft 108 kts 108°
2026-05-07 21:06 78.25087 15.38067 268 ft 97 kts 106°
2026-05-07 21:06 78.24921 15.41117 117 ft 89 kts 107°
2026-05-07 21:06 78.24778 15.43575 81 ft 67 kts 106°
2026-05-07 21:07 78.24608 15.46611 116 ft 110 kts 106°
2026-05-07 21:07 78.24407 15.50303 470 ft 109 kts 100°
2026-05-07 21:07 78.24830 15.53190 591 ft 129 kts
2026-05-07 21:07 78.25426 15.50374 710 ft 123 kts 288°
2026-05-07 21:08 78.25500 15.46592 503 ft 107 kts 240°
2026-05-07 21:08 78.24903 15.45202 210 ft 91 kts 166°
2026-05-07 21:08 78.24597 15.47044 91 ft 58 kts 107°
2026-05-07 21:08 78.24505 15.48570 94 ft 34 kts 105°
2026-05-07 21:09 78.24462 15.49368 91 ft 14 kts 104°
2026-05-07 21:09 78.24465 15.49790 91 ft 14 kts 31°
2026-05-07 21:09 78.24544 15.49982 91 ft 9 kts 57°
2026-05-07 21:09 78.24550 15.50128 90 ft 0 kts 89°